EW2108 Weather Reports


time (UTC)temp
F
wind
direction
speed
knots
gust
knots
rain 1hr
in
rain 24hr
in
rain mn
in
humidity
%
barometer
mb
20260504210048 61 205 0.9 4.3 0.00 0.13 0.05 81 1017.9
20260504204545 60 215 1.7 4.3 0.00 0.13 0.05 84 1017.6
20260504203042 60 248 0.0 2.6 0.00 0.13 0.05 86 1017.6
20260504201548 61 248 0.0 6.1 0.00 0.13 0.05 89 1017.2
20260504200037 61 270 0.0 2.6 0.00 0.13 0.05 91 1017.1
20260504194533 61 273 0.0 1.7 0.00 0.13 0.05 92 1017.0
20260504193118 62 273 0.0 2.6 0.00 0.13 0.05 93 1016.7
20260504191542 63 279 0.0 2.6 0.00 0.13 0.05 94 1016.6
20260504190036 63 288 0.0 1.7 0.00 0.13 0.05 94 1016.5
20260504190006 63 288 0.0 0.9 0.00 0.13 0.05 94 1016.5
20260504184542 63 288 0.0 0.0 0.00 0.13 0.05 94 1016.5
20260504183032 63 288 0.0 0.0 0.00 0.13 0.05 94 1016.2
20260504181535 63 288 0.0 0.0 0.01 0.13 0.05 94 1016.5
20260504180030 64 288 0.0 0.9 0.01 0.13 0.05 94 1016.3
20260504174528 64 288 0.0 1.7 0.01 0.13 0.05 93 1016.3
20260504173031 64 292 0.0 0.0 0.01 0.13 0.05 93 1015.7
20260504171520 64 292 0.0 0.0 0.00 0.13 0.04 93 1016.0
20260504081558 70 294 0.0 2.6 0.00 0.00 0.00 79 1015.2
20260504044546 75 323 0.0 0.0 0.00 0.00 0.00 74 1014.9
20260504044513 75 322 0.0 0.0 0.00 0.00 0.00 74 1014.8
20260504043042 75 322 0.0 0.9 0.00 0.00 0.00 73 1014.8
20260504041536 76 323 0.0 0.9 0.00 0.00 0.00 71 1014.9
20260504040038 75 322 0.0 0.0 0.00 0.00 0.00 67 1015.1
20260504034518 75 323 0.0 0.0 0.00 0.00 0.00 69 1015.4
20260504033020 75 323 0.0 0.0 0.00 0.00 0.00 69 1015.2
20260504031509 75 323 0.0 0.0 0.00 0.00 0.00 67 1015.7
20260504030105 76 323 0.0 1.7 0.00 0.00 0.00 65 1016.0
20260504024506 77 322 0.0 0.0 0.00 0.00 0.00 64 1016.3
20260504023100 76 322 0.0 0.9 0.00 0.00 0.00 64 1016.5
20260504021558 75 323 0.0 0.0 0.00 0.00 0.00 65 1016.6
20260504020057 75 323 0.0 0.0 0.00 0.00 0.00 67 1017.0
20260504014558 75 300 0.0 0.9 0.00 0.00 0.00 69 1017.2
20260504013106 75 300 0.0 1.7 0.00 0.00 0.00 73 1017.4
20260504011554 75 300 0.0 1.7 0.00 0.00 0.00 72 1017.5
20260504010056 75 287 0.0 2.6 0.00 0.00 0.00 70 1017.5
20260504004603 75 287 0.9 2.6 0.00 0.00 0.00 69 1017.6
20260504003049 74 320 0.9 1.7 0.00 0.00 0.00 72 1017.6
20260504001549 74 320 0.9 3.5 0.00 0.00 0.00 72 1017.7
20260504000050 74 321 0.9 2.6 0.00 0.00 0.00 71 1017.7
20260503234544 73 319 0.0 2.6 0.00 0.00 0.00 74 1017.8
20260503233040 72 319 0.9 2.6 0.00 0.00 0.00 75 1017.8
20260503231540 71 319 0.0 3.5 0.00 0.00 0.00 77 1017.8
20260503230036 70 332 0.9 3.5 0.00 0.00 0.00 79 1017.9
20260503224534 70 345 0.0 4.3 0.00 0.00 0.00 79 1017.7
20260503223031 69 351 1.7 5.2 0.00 0.00 0.00 79 1017.8
20260503221526 69 339 1.7 4.3 0.00 0.00 0.00 81 1017.7
20260503220025 68 344 1.7 9.6 0.00 0.00 0.00 83 1017.6
20260503214521 67 321 0.9 4.3 0.00 0.00 0.00 84 1017.6
20260503213026 66 341 1.7 4.3 0.00 0.00 0.00 86 1017.4
20260503211529 65 340 0.0 2.6 0.00 0.00 0.00 88 1017.2